Regional Weather Roundup
Issued by NWS

Home | Current Version | Previous Version | Text Only | Print | Product List | Glossary Off
Versions: 1 2 3 4 5 6 7 8 9 10 11 12 13 14 15 16 17 18 19 20 21 22 23 24 25 26 27 28 29 30 31 32 33 34 35 36 37 38 39 40 41 42 43 44 45 46 47 48 49 50

394
ASUS43 KFSD 051602
RWRSD

WEATHER ROUNDUP FOR SOUTH DAKOTA
NATIONAL WEATHER SERVICE SIOUX FALLS SD
1000 AM CST MON DEC 05 2016

NOTE: "FAIR" INDICATES FEW OR NO CLOUDS BELOW 12,000 FEET WITH NO
SIGNIFICANT WEATHER AND/OR OBSTRUCTIONS TO VISIBILITY.


SDZ001>005-009-010-012>017-051700-
NORTHWEST AND NORTH CENTRAL SOUTH DAKOTA

CITY           SKY/WX    TMP DP  RH WIND       PRES   REMARKS
BUFFALO          N/A     25  18  74 NW39      29.53R WCI   6
FAITH            N/A     29  29 100 NW35G43   29.54R WCI  12
MOBRIDGE       CLOUDY    31  25  78 N7        29.49R WCI  24
$$

SDZ012>016-024>037-041>051-057-063-072>074-051700-
SOUTHWEST AND SOUTH CENTRAL SOUTH DAKOTA

CITY           SKY/WX    TMP DP  RH WIND       PRES   REMARKS
RAPID CTY ARPT PTSUNNY   31  24  75 NW38G46   29.56R WCI  15
PIERRE         MOSUNNY   25  22  88 NW8       29.48R WCI  16
ELLSWORTH AFB  MIX PCPN  30  26  86 NW29G38   29.56  WCI  15
PHILIP         CLOUDY    35  30  82 NW16      29.56R WCI  25
PINE RIDGE     CLOUDY    34  30  85 N13       29.58R WCI  25
SPEARFISH      FLURRIES  23  19  86 NW23G30   29.64R WCI   7
WINNER         FAIR      48  28  46 W18       29.46S
$$

SDZ004>011-016>023-039-040-051700-
NORTHEAST SOUTH DAKOTA

CITY           SKY/WX    TMP DP  RH WIND       PRES   REMARKS
ABERDEEN       CLOUDY    32  28  85 E8        29.52F WCI  25
WATERTOWN      CLOUDY    33  28  81 SE9       29.53F WCI  25
SISSETON         N/A     29  27  92 SE6       29.58F WCI  23
$$

SDZ017-020-022-023-036>040-048>070-051700-
SOUTHEAST SOUTH DAKOTA

CITY           SKY/WX    TMP DP  RH WIND       PRES   REMARKS
SIOUX FALLS    CLOUDY    39  30  70 S15G22    29.54F
HURON          CLOUDY    34  29  82 MISG      29.50F
MITCHELL       CLOUDY    36  30  79 SE8       29.50F
YANKTON        FAIR      41  27  56 S12       29.55S
$$

ABBREVIATIONS USED IN REMARKS
   TC - TEMPERATURE IN CELSIUS
  WCI - WIND CHILL INDEX
   HX - HEAT INDEX
  VSB - VISIBILITY





USA.gov is the U.S. government's official web portal to all federal, state and local government web resources and services.